Погода в Сухиничи

Хотите узнать прогноз погоды в Сухиничи? Тогда Вам сюда: Погода в Сухиничи

Поиск расширенной информации на нашем сайте:

Полезная информация:

Новости сайта



02.01.2020
Опубликован Долгосрочный прогноз погоды по городам России и ближнего зарубежья на январь 2020 года.
Карты: Прогноз на январь и февраль 2020 года, Сравнение прогнозируемой аномалии приземной температуры воздуха на январь 2020 года по разным моделям.




Погода в Сухиничи - сегодня

Время (UTC), дата Ветер
(°,м/с) 
Видим.   Явления Облачность Т
(°С)
Тd
(°С)
f(%) Тe
(°С)
Pmin
(гПа)
dP
(гПа)
Po
(мм)
O2
(г/м3)
Тmin Tmax R s Состояние
почвы
09 19.09.20 300 (СЗ) 4000 м    6/6 600 м 
[Sc]
+11.8 +6.9 72 +11  1015.1  740  285           
12 19.09.20 300 (СЗ) 4{10}  4000 м    8/8 600 м кучево-дожд. 
[Cb cap]
+11.8 +5.8 67 +11  1015.7  0.6  740  285           
15 19.09.20 280 (З) 4000 м    4/1 1000 м средняя 
[Cu med, cong|Ac trans]
+11.7 +5.7 67 +12  1015.5  -0.2  740  285           
18 19.09.20 250 (З) 4000 м  дымка  ясно 
+5.5 +4.6 94 +6  1016.3  0.3  740  292    +12.9       
21 19.09.20 280 (З) 4000 м  дымка  4/4 2000 м средняя 
[Ac trans]
+6.9 +6.1 95 +7  1016.4  0.1  741  290           
00 20.09.20 270 (З) 4000 м  дымка  ясно 
+5.1 +4.5 96 +6  1016.9  0.1  741  292           
03 20.09.20 270 (З) 4000 м  дымка  1/0 верхняя 
[Ci fib]
+4 +3.3 95 +5  1018.1  1.1  742  294  +3.9         
06 20.09.20 310 (СЗ) 4000 м    3/3 2000 м средняя 
[Ac trans]
+7.8 +5.3 84 +8  1019.6  1.8  743  290  +3.8        влажная 
09 20.09.20 330 (СЗ) 4000 м    6/6 1000 м 
[Cu med, cong]
+11.7 +3 55 +11  1020.4  744  287           
12 20.09.20 310 (СЗ) 4000 м    6/5 1000 м верхняя 
[Cu med, cong|Ci fib]
+12.5 +1.2 46 +12  1020.5  0.2  744  286           
15 20.09.20 300 (СЗ) 4000 м    3/0 верхняя 
[Ci fib]
+11.4 +2 52 +12  1020.9  0.3  744  288           
18 20.09.20 тихо ()   4000 м    ясно 
+4.6 +3.3 91 +5  1022.2  0.7  745  295    +13.4       
21 20.09.20 230 (ЮЗ) 4000 м  дымка  ясно 
+3.1 +2.4 95 +4  1022.8  0.3  745  296           
00 21.09.20 230 (ЮЗ) 4000 м  дымка  ясно 
+2.9 +2.4 97 +4  1022.3  -0.5  745  296           
03 21.09.20 240 (ЮЗ) 4000 м  дымка  5/5 2000 м средняя 
[Ac As]
+1.9 +1.3 96 +3  1022.2  -0.1  744  298  +1.6         
06 21.09.20 260 (З) 4000 м    8/5 600 м средняя 
[Sc|Ac cast]
+7.6 +4.7 82 +7  1021.3  -0.2  744  291  +1.6        влажная 
09 21.09.20 270 (З) 4000 м    6/1 1000 м верхняя 
[Cu hum|Ci fib]
+13.7 +6.5 62 +14  1019.9  -0.8  744  284           
12 21.09.20 260 (З) 10 км    ясно 
+15.5 +4.9 49 +16  1018.9  -0.9  743  283           
15 21.09.20 250 (З) 10 км    9/9 2000 м средняя 
[Ac As]
+13 +6 62 +13  1019.1  743  285           
18 21.09.20 260 (З) 10 км    8/8 2000 м средняя 
[Ac As]
+10.5 +6.4 76 +12  1019.2  743  287    +15.5       
21 21.09.20 250 (З) 10 км    ясно 
+8.9 +7.1 88 +9  1019.2  -0.4  743  289           
00 22.09.20 250 (З) 4000 м    3/3 2000 м средняя 
[Ac trans]
+10.1 +8.3 89 +10  1019  743  287           
03 22.09.20 250 (З) 10 км    9/0 верхняя 
[Ci]
+8.3 +7.1 92 +8  1018.9  -0.1  743  289  +7.5         
06 22.09.20 250 (З) 10 км    9/0 верхняя 
[Ci]
+10.4 +7.5 82 +11  1019  0.3  743  287  +7.5         
09 22.09.20 260 (З) 10 км    10/0 верхняя 
[Cs]
+17.4 +9.7 61 +19  1018.6  0.1  743  280           
Время (UTC), дата Ветер
(°,м/с) 
Видим.   Явления Облачность Т
(°С)
Тd
(°С)
f(%) Тe
(°С)
Pmin
(гПа)
dP
(гПа)
Po
(мм)
O2
(г/м3)
Тmin Tmax R s Состояние
почвы

Для получения пояснительной информации подведите курсор к названию столбца.

ПОГОДА в Сухиничи - архив

Всё, что Вы хотите узнать о погоде в Сухиничи - удобно и подробно!

Выберите нужную дату (начиная с 1 января 2019* года) и нажмите кнопку "Найти".
Будут отображены архивные сводки погоды по пункту Сухиничи, начиная с указанной даты.


Отображать данные в формате CSV (для использования в таблицах Excel)


Внимание! Наш архив погоды предназначен исключительно для личного некоммерческого использования в познавательных целях. Если Вам необходимы официальные справки о состоянии погоды (для производственных, юридических, коммерческих и т.п. целей), обращайтесь в органы Росгидромета.

*Примечание: данная дата относится к архиву по метеостанциям СССР (Россия, СНГ, Балтия).
Архив по метеостанциям Зарубежной Европы и Азии (кроме Китая) хранится 10 дней, по другим регионам земного шара (Китай, Африка, Америка, Австралия, Океания) - 1 день.

Сухиничи - район местоположения метеостанции


Название, широта, долгота, высота метеостанции:
Сухиничи 54.1°ш. 35.3°д. 238 м над ур. моря [Российская Федерация]

Дополнительная информация

В oтличие oт бoльшинства пoгoдных сайтoв мы публикуем пoдрoбную метеoинфoрмацию в детальнoм прoфессиoнальнoм фoрмате.

Характеристики температуры и влажнoсти вoздуха измеряются на высoте 2 м в тени вдали oт зданий и деревьев.
Скoрoсть ветра измеряется на высoте 10 м (на урoвне рoста челoвека скoрoсть ветра ниже в 1.5-2 раза). Если метеoстанция нахoдится в гoрoде или в лесу, тo скoрoсть ветра занижена на 2-4 м/с пo сравнению с oткрытым местoм. Скoрoсть ветра над акватoриями крупных рек и oзёр, а также на вершинах хoлмoв на 2-5 м/с выше, чем в oбычных услoвиях.
Атмoсфернoе давление в разных тoчках местнoсти мoжет значительнo oтличаться oт давления на метеoстанции, в зависимoсти oт услoвий рельефа (при пoдъёме на 10 м давление пoнижается примернo на 1 мм рт.ст.).